Погода в Молочнице

Россия / Республика Мордовия     54°14′11″N   42°52′46″E
темп.,
°C
ветер,
м/с
пор.,
м/с
влажн.,
%
обл.,
%
осадки,
мм/ч
давл.,
гПа
погр.,
м
23 апреля, пт
пт2300:00+7ю247783 0.0 102275
03:00+7ююв367810 0.0 102191
06:00+7ю2876100 0.0 1021187
09:00+11ю41065100 0.0 1022542
12:00+15ю564744 0.0 10202121
15:00+14ююв365799 0.1 1019789
18:00+14ююв37595 0.0 1018323
21:00+9юв387434 0.0 1017144
24 апреля, сб
сб2400:00+8ююв36835 0.0 1015102
03:00+7ююв389276 0.0 1014167
06:00+8юв4108862 0.0 1012324
09:00+12ююв586995 0.0 1010741
12:00+14ю6862100 1.4 10071457
15:00+13ю5861100 2.9 10051462
18:00+4з51095100 3.0 1006565
21:00+5зюз499098 3.8 1007846
25 апреля, вс
вс2500:00+3зюз410935 0.1 1006467
03:00+2зюз411947 0.1 1006474
06:00+3з51291100 0.0 1008700
09:00+6з712643 0.1 10101268
12:00+8з81244100 0.0 10112596
15:00+8зюз7125275 0.5 10122284
18:00+7з7145441 0.6 10131808
21:00+4юз3106916 0.6 1014327
26 апреля, пн
пн2600:00+2ююз398048 0.0 1015219
03:00+4юз5136999 0.0 1014711
06:00+4юз61073100 0.1 10141184
09:00+4з567754 0.1 1015794
12:00+9зюз464194 0.1 10142012
15:00+9юз4542100 0.1 10131888
18:00+5юз2281100 0.6 1013527
21:00+3ююв1197100 4.4 1012452
27 апреля, вт
вт2700:00+3з1294100 2.5 1011312
03:00+3ююз3695100 2.8 1010337
06:00+2юз38925 0.1 1009327
09:00+6зюз46695 0.1 1009828
12:00+9зюз4652100 1.4 10091831
15:00+8зюз6760100 3.2 10091396
18:00+6з597299 1.3 1009824
21:00+2зюз368610 1.8 1012120